Miscellaneous Local Product
Issued by NWS Hastings, NE

Home | Current Version | Previous Version | Graphics & Text | Print | Product List | Glossary On
Versions: 1 2 3 4 5 6 7 8 9 10 11 12 13 14 15 16 17 18 19 20 21 22 23 24 25 26 27 28 29 30 31 32 33 34 35 36 37 38 39 40 41 42 43 44 45 46 47 48 49 50
000
AXUS43 KGID 220002
MISGRI

GID CWA HOURLY WEATHER ROUNDUP
NATIONAL WEATHER SERVICE HASTINGS NE
700 PM CDT THU AUG 21 2014

NOTE: "FAIR" INDICATES FEW OR NO CLOUDS BELOW 12,000 FEET WITH NO
SIGNIFICANT WEATHER AND/OR OBSTRUCTIONS TO VISIBILITY.

...SOUTH CENTRAL NEBRASKA...

CITY           SKY/WX    TMP DP  RH WIND       PRES   REMARKS
GRAND ISLAND   MOSUNNY   87  71  58 NE3       29.86S HX  93
HASTINGS       MOSUNNY   85  72  65 NE8       29.85F HX  91
KEARNEY        MOSUNNY   88  72  58 N5        29.88R HX  94
ORD            SUNNY     88  70  55 N3        29.86F HX  93
YORK           SUNNY     84 N/A N/A N5        29.85S
AURORA         SUNNY     85  76  73 E3        29.85F HX  95
LEXINGTON      MOSUNNY   87  72  60 NE3       29.89S HX  93
HOLDREGE       SUNNY     85  72  63 CALM      29.87S HX  91
HEBRON         MOSUNNY   83  71  66 CALM      29.82R

...NEBRASKA PANHANDLE...

CITY           SKY/WX    TMP DP  RH WIND       PRES   REMARKS
CHADRON        MOSUNNY   87  53  31 SE21      29.92F
ALLIANCE       MOSUNNY   85  48  27 S5        29.98S
SCOTTSBLUFF    PTSUNNY   89  44  20 CALM      29.99S
SIDNEY         MOSUNNY   85  47  26 E6        30.03S

...WESTERN AND NORTH CENTRAL NEBRASKA...

CITY           SKY/WX    TMP DP  RH WIND       PRES   REMARKS
VALENTINE      MOSUNNY   87  56  34 MISG      29.93S
AINSWORTH      SUNNY     82  64  53 NE5       29.94R
ONEILL         SUNNY     86  71  60 N5        29.90S HX  91
BROKEN BOW     SUNNY     87  67  51 NE7       29.91S HX  90
IMPERIAL       SUNNY     90  51  26 NW6       29.95S
NORTH PLATTE   SUNNY     85  62  46 NE8       29.92R
MCCOOK         MOSUNNY   93  50  23 NW6       29.89S HX  90

...EASTERN NEBRASKA...

CITY           SKY/WX    TMP DP  RH WIND       PRES   REMARKS
NORFOLK        SUNNY     89  71  55 VRB3      29.84S HX  95
SO SIOUX CITY  SUNNY     89  76  65 W3        29.82S HX 100
TEKAMAH        SUNNY     88  74  63 W5        29.82F HX  96
COLUMBUS       SUNNY     88  73  62 E5        29.85F HX  96
ALBION         SUNNY     85  70  60 NE7       29.86S HX  90
OMAHA EPPLEY   MOSUNNY   91  69  48 S3        29.82F HX  96
OFFUTT AFB     SUNNY     87  78  75 SE2       29.83F HX 100
MILLARD        MOSUNNY   90  71  53 SW5       29.83S HX  96
LINCOLN        MOSUNNY   89  72  56 N5        29.83F HX  96
NEBRASKA CITY  SUNNY     84  76  75 NE7       29.83F HX  93
BEATRICE       SUNNY     90  75  62 NE3       29.81F HX 100
FALLS CITY     SUNNY     95  71  45 S10       29.80S HX 102

...NORTHERN KANSAS...

CITY           SKY/WX    TMP DP  RH WIND       PRES   REMARKS
GOODLAND       SUNNY     92  49  22 NE8       29.97S
HILL CITY      SUNNY     96  61  31 N7        29.83F HX  96
NORTON         CLEAR     93  55  27 N12       29.85S HX  91
PHILLIPSBURG   SUNNY     97  59  28 W3        29.81S HX  96
SMITH CENTER   PTSUNNY   90  66  45 S20       29.82R HX  92
BELOIT         SUNNY     91  66  43 S5        29.78S HX  94
HAYS           MOSUNNY   95  64  36 S15       29.81S HX  97
RUSSELL        MOSUNNY   95  63  34 S17G25    29.79S HX  96
CONCORDIA      MOSUNNY   90  69  50 S9        29.80S HX  94
SALINA         SUNNY     97  67  37 S14G28    29.80F HX 101
TOPEKA         SUNNY     97  69  40 S16G24    29.82F HX 103



USA.gov is the U.S. government's official web portal to all federal, state and local government web resources and services.